Starlink 31127

operational
NORAD ID: 58765 Int'l Des: 2024-011 Owner: SPXS Country: US Constellation: starlink
LEOCIRCULAR

Starlink 31127について

説明を読み込み中...

リアルタイム位置

3D地球を読み込み中...

次回通過

高度履歴

Altitude vs Time

uPlot chart will show altitude changes over time

軌道要素

1 58765U 24011A 25350.43846928 .00001812 00000-0 73331-4 0 9991
2 58765 53.1611 40.4096 0001081 87.6190 272.4934 15.30185968107526
Epoch: Dec 16, 2025 • Age: 23 hours

現在のステータス

高度 491.4 km
速度 7.62 km/s
衛星直下点 -45.73°S, 113.37°E
打ち上げ日 Jan 14, 2024
運用期間 1.9 years
タイプ internet

技術仕様

分類 Payload
質量 730.00 kg
乾燥質量 700.00 kg
総質量 730.00 kg
長さ 0.30 m
直径 4.10 m
スパン 29.00 m
形状 Box + pan
製造者 SPXS
バスタイプ Starlink V2M
フェーズステータス In Orbit
所有者/国 SPXS/US

大規模コンステレーション

Loading constellations...